Regional Weather Roundup
Issued by NWS Kansas City/Pleasant Hill, MO

Home | Current Version | Previous Version | Graphics & Text | Print | Product List | Glossary Off
Versions: 1 2 3 4 5 6 7 8 9 10 11 12 13 14 15 16 17 18 19 20 21 22 23 24 25 26 27 28 29 30 31 32 33 34 35 36 37 38 39 40 41 42 43 44 45 46 47 48 49 50

308
ASUS43 KEAX 232310
RWREAX

WEATHER ROUNDUP FOR EASTERN KANSAS AND NORTHWEST MISSOURI
NATIONAL WEATHER SERVICE KANSAS CITY/PLEASANT HILL MO
500 PM CST TUE JAN 23 2018

KSZ040-057-103>105-MOZ028-029-037-043-240000-
...KANSAS CITY METROPOLITAN AREA...

CITY           SKY/WX    TMP DP  RH WIND       PRES   REMARKS
K.C. INTL      PTCLDY    33  25  72 NW3       30.21R
K.C. DOWNTOWN  CLEAR     35  25  66 NW7       30.21R WCI  29
LEES SUMMIT    CLEAR     35  26  69 W7        30.21R WCI  29
OLATHE - IXD   CLEAR     33  26  75 W6        30.22S WCI  28
OLATHE - OJC   CLEAR     33  26  75 W6        30.21S WCI  28
LAWRENCE       CLEAR     34  28  79 W6        30.23R WCI  29

$$

MOZ001>008-011>017-020>025-030>033-038>040-044>046-053-054-240000-
...NORTHERN AND CENTRAL MISSOURI...

CITY           SKY/WX    TMP DP  RH WIND       PRES   REMARKS
ST. JOSEPH     PTCLDY    31  26  82 W7        30.23R WCI  24
MOSBY          CLEAR     32  27  80 NW8       30.22R WCI  25
WARRENSBURG    CLEAR     34  25  69 W6        30.22R WCI  29
WHITEMAN AFB   CLEAR     36  24  62 W9        30.17R WCI  29
CLINTON        CLEAR     36  27  69 W9        30.23S WCI  29
SEDALIA        CLEAR     36  28  73 NW8       30.20R WCI  30
WARSAW         NOT AVBL
CHILLICOTHE      N/A     31  23  72 NW5       30.21S WCI  26
KIRKSVILLE     CLOUDY    28  25  88 NW10      30.18R WCI  19

$$

MOZ041-047>049-056>058-063>065-088>090-097-240000-
...EASTERN AND SOUTHERN MISSOURI...

CITY           SKY/WX    TMP DP  RH WIND       PRES   REMARKS
ST. LOUIS INTL CLOUDY    36  28  73 NW14G22   30.16R WCI  27
SPIRIT OF STL  CLOUDY    36  27  69 W13       30.17R WCI  27
COLUMBIA       CLOUDY    33  26  75 NW14      30.18R WCI  23
JEFFERSON CITY CLOUDY    36  27  69 NW9       30.21R WCI  29
ROLLA          MOCLDY    33  26  75 W8        30.18R WCI  26
OSAGE BEACH    CLEAR     35  26  69 W7        30.21R WCI  29
SPRINGFIELD    CLEAR     39  28  64 W9        30.21R WCI  33
BRANSON        CLEAR     41  27  56 W3        30.22R
JOPLIN         CLEAR     40  29  64 W7        30.25R
WEST PLAINS    CLEAR     39  27  62 NW8       30.19R WCI  33

$$

IAZ060-094-KSZ022-034>040-054-083-096-NEZ052-066-093-240000-
...KANSAS...SOUTHEAST NEBRASKA AND IOWA...

CITY           SKY/WX    TMP DP  RH WIND       PRES   REMARKS
TOPEKA         CLEAR     34  27  75 W9        30.24R WCI  27
MANHATTAN      CLEAR     41  27  57 W3        30.24R
EMPORIA        CLEAR     40  24  53 W9        30.23R WCI  34
CHANUTE        CLEAR     44  22  41 W5        30.24R
WICHITA        CLEAR     48  20  32 NW8       30.24R
OMAHA          CLOUDY    27  22  81 W5        30.20S WCI  22
LINCOLN        MOCLDY    30  23  75 W5        30.22R WCI  25
FALLS CITY     CLEAR     30  25  81 NW6       30.22R WCI  24
LAMONI         CLOUDY    27  21  78 NW12      30.17S WCI  17
DES MOINES     CLOUDY    26  20  77 NW15G21   30.17R WCI  14

$$





USA.gov is the U.S. government's official web portal to all federal, state and local government web resources and services.